QPF
0.00 0.00 0.00 0.00 0.00 0.00 0.00 0.00 0.00 0.00 0.00 0.00 0.00 0.00 0.00 0.00 0.00 0.00 0.00 0.00 0.00 0.00 0.00 0.00 0.00 0.00 0.00 0.00 0.00 0.00 0.00 0.00 0.00 0.00 0.00 0.00 0.00 0.00 0.00 0.00 0.00 0.00 0.00
0.00 0.00 0.00 0.00 0.00 0.00 0.00 0.00 0.00 0.00 0.00 0.00 0.00 0.00 0.00 0.00 0.00 0.00 0.00 0.00 0.00 0.00 0.00 0.00 0.00 0.00 0.00 0.00 0.00 0.00 0.00 0.00 0.00 0.00 0.00 0.00 0.00 0.00 0.00 0.00 0.00 0.00 0.00
0.00 0.00 0.00 0.00 0.00 0.00 0.00 0.00 0.00 0.00 0.00 0.00 0.00 0.00 0.00 0.00 0.00 0.00 0.00 0.00 0.00 0.00 0.00 0.00 0.00 0.00 0.00 0.00 0.00 0.00 0.00 0.00 0.00 0.00 0.00 0.00 0.00 0.00 0.00 0.00 0.00 0.00 0.00
0.00 0.00 0.00 0.00 0.00 0.00 0.00 0.00 0.00 0.00 0.00 0.00 0.00 0.00 0.00 0.00 0.00 0.00 0.00 0.00 0.00 0.00 0.00 0.00 0.00 0.00 0.00 0.00 0.00 0.00 0.00 0.00 0.00 0.00 0.00 0.00 0.00 0.00 0.00 0.00 0.00 0.00 0.00
0.00 0.00 0.00 0.00 0.00 0.00 0.00 0.00 0.00 0.00 0.00 0.00 0.00 0.00 0.00 0.00 0.00 0.00 0.00 0.00 0.00 0.00 0.00 0.00 0.00 0.00 0.00 0.00 0.00 0.00 0.00 0.00 0.00 0.00 0.00 0.00 0.00 0.00 0.00 0.00 0.00 0.00 0.00
0.00 0.00 0.00 0.00 0.00 0.00 0.00 0.00 0.00 0.00 0.00 0.00 0.00 0.00 0.00 0.00 0.00 0.00 0.00 0.00 0.00 0.00 0.00 0.00 0.00 0.00 0.00 0.00 0.00 0.00 0.00 0.00 0.00 0.00 0.00 0.00 0.00 0.00 0.00 0.00 0.00 0.00 0.00
0.00 0.00 0.00 0.00 0.00 0.00 0.00 0.00 0.00 0.00 0.00 0.00 0.00 0.00 0.00 0.00 0.00 0.00 0.00 0.00 0.00 0.00 0.00 0.00 0.00 0.00 0.00 0.00 0.00 0.00 0.00 0.00 0.00 0.00 0.00 0.00 0.00 0.00 0.00 0.00 0.00 0.00 0.00
0.00 0.00 0.00 0.00 0.00 0.00 0.00 0.00 0.00 0.00 0.00 0.00 0.00 0.00 0.00 0.00 0.00 0.00 0.00 0.00 0.00 0.00 0.00 0.00 0.00 0.00 0.00 0.00 0.00 0.00 0.00 0.00 0.00 0.00 0.00 0.00 0.00 0.00 0.00 0.00 0.00 0.00 0.00
0.00 0.00 0.00 0.00 0.00 0.00 0.00 0.00 0.00 0.00 0.00 0.00 0.00 0.00 0.00 0.00 0.00 0.01 0.01 0.01 0.01 0.00 0.00 0.00 0.00 0.00 0.00 0.00 0.00 0.00 0.00 0.00 0.00 0.00 0.00 0.00 0.00 0.00 0.00 0.00 0.00 0.00 0.00
0.00 0.00 0.00 0.00 0.00 0.00 0.00 0.00 0.00 0.00 0.00 0.00 0.00 0.00 0.00 0.00 0.01 0.01 0.02 0.02 0.02 0.01 0.01 0.00 0.01 0.01 0.01 0.01 0.01 0.01 0.01 0.01 0.01 0.01 0.01 0.01 0.01 0.00 0.00 0.00 0.00 0.00 0.00
0.00 0.00 0.00 0.00 0.00 0.00 0.00 0.00 0.00 0.00 0.00 0.00 0.00 0.00 0.00 0.01 0.01 0.02 0.03 0.04 0.03 0.02 0.02 0.02 0.01 0.02 0.02 0.02 0.02 0.02 0.02 0.02 0.03 0.03 0.03 0.02 0.01 0.00 0.00 0.00 0.00 0.00 0.00
0.00 0.00 0.00 0.00 0.00 0.00 0.00 0.00 0.01 0.01 0.01 0.01 0.01 0.01 0.01 0.01 0.01 0.02 0.04 0.06 0.05 0.04 0.03 0.02 0.03 0.04 0.05 0.07 0.07 0.05 0.04 0.04 0.05 0.04 0.03 0.02 0.01 0.01 0.00 0.00 0.00 0.00 0.00
0.00 0.00 0.00 0.00 0.00 0.00 0.00 0.00 0.01 0.01 0.02 0.02 0.02 0.02 0.02 0.02 0.02 0.03 0.04 0.06 0.07 0.07 0.05 0.04 0.05 0.07 0.09 0.10 0.10 0.08 0.07 0.06 0.04 0.03 0.02 0.01 0.01 0.01 0.00 0.00 0.00 0.00 0.00
0.00 0.00 0.00 0.00 0.00 0.00 0.00 0.00 0.01 0.01 0.02 0.03 0.03 0.04 0.04 0.04 0.04 0.06 0.09 0.11 0.12 0.11 0.08 0.07 0.08 0.11 0.13 0.12 0.11 0.09 0.07 0.06 0.03 0.03 0.02 0.02 0.01 0.01 0.01 0.00 0.00 0.00 0.00
0.00 0.00 0.00 0.00 0.00 0.00 0.00 0.00 0.01 0.01 0.01 0.02 0.03 0.04 0.06 0.06 0.06 0.13 0.18 0.17 0.16 0.13 0.12 0.14 0.16 0.18 0.19 0.15 0.14 0.13 0.08 0.06 0.05 0.04 0.03 0.03 0.02 0.01 0.01 0.01 0.01 0.00 0.00
0.00 0.00 0.00 0.00 0.00 0.00 0.00 0.00 0.00 0.01 0.01 0.02 0.03 0.05 0.06 0.06 0.09 0.16 0.21 0.22 0.22 0.19 0.18 0.19 0.20 0.18 0.16 0.12 0.12 0.12 0.09 0.08 0.07 0.06 0.05 0.04 0.03 0.02 0.01 0.01 0.01 0.01 0.00
0.00 0.00 0.00 0.00 0.00 0.00 0.00 0.01 0.01 0.00 0.01 0.01 0.02 0.04 0.06 0.07 0.10 0.15 0.20 0.27 0.30 0.27 0.21 0.15 0.16 0.17 0.16 0.14 0.13 0.12 0.10 0.10 0.09 0.08 0.06 0.05 0.03 0.03 0.02 0.01 0.01 0.00 0.00
0.00 0.01 0.01 0.01 0.01 0.01 0.01 0.01 0.01 0.01 0.01 0.01 0.01 0.02 0.04 0.07 0.09 0.12 0.19 0.30 0.35 0.29 0.16 0.10 0.13 0.17 0.18 0.17 0.16 0.14 0.13 0.11 0.10 0.08 0.06 0.04 0.03 0.02 0.01 0.01 0.00 0.00 0.00
0.01 0.01 0.01 0.01 0.01 0.01 0.01 0.01 0.02 0.02 0.01 0.01 0.01 0.01 0.03 0.06 0.08 0.10 0.16 0.24 0.21 0.17 0.11 0.10 0.15 0.20 0.20 0.18 0.16 0.14 0.12 0.10 0.08 0.06 0.04 0.03 0.02 0.01 0.01 0.00 0.00 0.00 0.00
0.01 0.01 0.01 0.02 0.02 0.02 0.02 0.02 0.02 0.02 0.02 0.02 0.02 0.01 0.03 0.07 0.09 0.09 0.13 0.15 0.16 0.15 0.11 0.11 0.17 0.21 0.20 0.17 0.15 0.12 0.10 0.08 0.06 0.05 0.03 0.02 0.01 0.01 0.00 0.00 0.00 0.00 0.00
0.02 0.01 0.01 0.02 0.03 0.03 0.03 0.03 0.03 0.03 0.03 0.03 0.02 0.02 0.05 0.07 0.06 0.07 0.10 0.13 0.13 0.12 0.10 0.11 0.15 0.18 0.17 0.14 0.11 0.09 0.07 0.06 0.04 0.03 0.02 0.01 0.01 0.00 0.00 0.00 0.00 0.00 0.00
0.02 0.02 0.02 0.03 0.04 0.04 0.04 0.05 0.05 0.04 0.04 0.04 0.03 0.03 0.07 0.10 0.08 0.08 0.09 0.09 0.09 0.09 0.10 0.11 0.14 0.14 0.12 0.09 0.07 0.06 0.05 0.04 0.03 0.02 0.01 0.01 0.00 0.00 0.00 0.00 0.00 0.00 0.00
0.02 0.03 0.03 0.03 0.04 0.04 0.05 0.05 0.05 0.05 0.05 0.05 0.05 0.06 0.07 0.07 0.07 0.07 0.08 0.09 0.10 0.11 0.12 0.12 0.11 0.09 0.08 0.06 0.05 0.04 0.03 0.02 0.01 0.01 0.01 0.00 0.00 0.00 0.00 0.00 0.00 0.00 0.00
0.02 0.03 0.03 0.03 0.04 0.04 0.04 0.04 0.05 0.05 0.05 0.05 0.05 0.06 0.07 0.08 0.09 0.10 0.10 0.10 0.10 0.10 0.09 0.07 0.06 0.05 0.04 0.03 0.03 0.02 0.02 0.01 0.01 0.00 0.00 0.00 0.00 0.00 0.00 0.00 0.00 0.00 0.00
0.02 0.03 0.03 0.03 0.03 0.03 0.04 0.04 0.04 0.05 0.05 0.05 0.06 0.07 0.08 0.08 0.09 0.09 0.09 0.09 0.08 0.07 0.05 0.04 0.04 0.03 0.02 0.02 0.01 0.01 0.00 0.00 0.00 0.00 0.00 0.00 0.00 0.00 0.00 0.00 0.00 0.00 0.00
0.01 0.02 0.02 0.02 0.02 0.03 0.03 0.03 0.03 0.04 0.04 0.05 0.06 0.06 0.07 0.07 0.07 0.07 0.07 0.07 0.06 0.05 0.04 0.03 0.02 0.01 0.01 0.00 0.00 0.00 0.00 0.00 0.00 0.00 0.00 0.00 0.00 0.00 0.00 0.00 0.00 0.00 0.00
MSLP
1014.40 1014.09 1013.74 1013.34 1012.93 1012.53 1012.16 1011.87 1011.66 1011.55 1011.51 1011.55 1011.63 1011.76 1011.91 1012.08 1012.28 1012.50 1012.75 1013.02 1013.30 1013.58 1013.85 1014.09 1014.31 1014.53 1014.76 1015.04 1015.40 1015.86 1016.45 1017.16 1017.98 1018.88 1019.80 1020.69 1021.52 1022.23 1022.80 1023.22 1023.48 1023.61 1023.62
1014.95 1014.64 1014.26 1013.82 1013.33 1012.84 1012.38 1011.97 1011.64 1011.40 1011.24 1011.14 1011.11 1011.13 1011.19 1011.29 1011.43 1011.63 1011.86 1012.14 1012.45 1012.76 1013.06 1013.33 1013.58 1013.82 1014.06 1014.34 1014.70 1015.16 1015.74 1016.45 1017.26 1018.16 1019.09 1020.00 1020.83 1021.56 1022.15 1022.58 1022.86 1023.00 1023.02
1015.49 1015.20 1014.81 1014.34 1013.80 1013.24 1012.69 1012.18 1011.74 1011.37 1011.08 1010.85 1010.68 1010.58 1010.52 1010.53 1010.60 1010.74 1010.95 1011.22 1011.52 1011.85 1012.16 1012.46 1012.73 1012.99 1013.25 1013.54 1013.90 1014.36 1014.94 1015.64 1016.45 1017.34 1018.27 1019.18 1020.02 1020.76 1021.36 1021.81 1022.11 1022.28 1022.34
1015.96 1015.69 1015.30 1014.81 1014.25 1013.64 1013.03 1012.45 1011.91 1011.43 1011.01 1010.64 1010.34 1010.10 1009.92 1009.82 1009.80 1009.87 1010.03 1010.26 1010.54 1010.85 1011.17 1011.48 1011.76 1012.03 1012.31 1012.61 1012.98 1013.45 1014.03 1014.73 1015.53 1016.41 1017.32 1018.23 1019.07 1019.82 1020.44 1020.92 1021.27 1021.50 1021.61
1016.28 1016.02 1015.65 1015.16 1014.58 1013.96 1013.31 1012.67 1012.06 1011.49 1010.96 1010.48 1010.05 1009.68 1009.38 1009.16 1009.03 1009.01 1009.09 1009.26 1009.51 1009.79 1010.10 1010.40 1010.69 1010.98 1011.26 1011.59 1011.97 1012.45 1013.03 1013.72 1014.51 1015.38 1016.28 1017.17 1018.02 1018.77 1019.42 1019.95 1020.36 1020.65 1020.86
1016.37 1016.13 1015.77 1015.29 1014.73 1014.10 1013.45 1012.79 1012.13 1011.50 1010.88 1010.30 1009.75 1009.26 1008.84 1008.50 1008.27 1008.15 1008.15 1008.25 1008.44 1008.69 1008.97 1009.27 1009.56 1009.86 1010.16 1010.50 1010.91 1011.39 1011.98 1012.66 1013.44 1014.29 1015.17 1016.05 1016.89 1017.66 1018.35 1018.93 1019.41 1019.80 1020.10
1016.21 1015.98 1015.63 1015.17 1014.63 1014.03 1013.40 1012.74 1012.06 1011.39 1010.71 1010.04 1009.40 1008.80 1008.26 1007.81 1007.47 1007.26 1007.17 1007.20 1007.34 1007.55 1007.81 1008.10 1008.40 1008.72 1009.05 1009.41 1009.83 1010.33 1010.92 1011.60 1012.36 1013.18 1014.05 1014.91 1015.75 1016.54 1017.27 1017.92 1018.49 1018.98 1019.39
1015.82 1015.59 1015.26 1014.83 1014.33 1013.76 1013.15 1012.51 1011.83 1011.13 1010.41 1009.67 1008.94 1008.24 1007.60 1007.05 1006.61 1006.31 1006.14 1006.11 1006.21 1006.39 1006.64 1006.94 1007.26 1007.60 1007.96 1008.35 1008.79 1009.31 1009.89 1010.56 1011.30 1012.11 1012.95 1013.81 1014.66 1015.47 1016.25 1016.97 1017.63 1018.23 1018.76
1015.31 1015.08 1014.75 1014.35 1013.88 1013.35 1012.77 1012.14 1011.47 1010.74 1009.98 1009.18 1008.37 1007.58 1006.84 1006.19 1005.67 1005.29 1005.06 1004.98 1005.05 1005.22 1005.48 1005.79 1006.14 1006.51 1006.91 1007.34 1007.81 1008.33 1008.92 1009.58 1010.31 1011.10 1011.92 1012.78 1013.65 1014.50 1015.34 1016.14 1016.90 1017.60 1018.23
1014.80 1014.55 1014.22 1013.83 1013.38 1012.87 1012.31 1011.69 1011.00 1010.25 1009.43 1008.57 1007.68 1006.80 1005.98 1005.25 1004.65 1004.20 1003.92 1003.82 1003.87 1004.05 1004.32 1004.67 1005.06 1005.47 1005.91 1006.38 1006.87 1007.41 1008.01 1008.66 1009.38 1010.15 1010.98 1011.85 1012.74 1013.65 1014.55 1015.44 1016.29 1017.09 1017.82
1014.40 1014.11 1013.76 1013.36 1012.91 1012.40 1011.83 1011.19 1010.47 1009.67 1008.79 1007.86 1006.89 1005.93 1005.02 1004.22 1003.55 1003.06 1002.75 1002.63 1002.68 1002.87 1003.18 1003.56 1004.00 1004.46 1004.95 1005.45 1005.97 1006.52 1007.12 1007.78 1008.50 1009.28 1010.12 1011.02 1011.96 1012.93 1013.91 1014.88 1015.82 1016.70 1017.50
1014.16 1013.82 1013.42 1012.98 1012.50 1011.95 1011.35 1010.66 1009.89 1009.02 1008.07 1007.05 1006.00 1004.96 1003.98 1003.12 1002.41 1001.88 1001.55 1001.42 1001.48 1001.70 1002.04 1002.46 1002.94 1003.45 1003.98 1004.51 1005.06 1005.64 1006.25 1006.92 1007.66 1008.46 1009.34 1010.28 1011.28 1012.32 1013.37 1014.42 1015.44 1016.39 1017.23
1014.08 1013.65 1013.18 1012.67 1012.11 1011.50 1010.83 1010.07 1009.22 1008.27 1007.23 1006.14 1005.01 1003.91 1002.88 1001.97 1001.22 1000.67 1000.33 1000.21 1000.28 1000.52 1000.89 1001.35 1001.87 1002.42 1002.98 1003.55 1004.13 1004.73 1005.37 1006.07 1006.83 1007.68 1008.60 1009.61 1010.67 1011.78 1012.91 1014.03 1015.10 1016.09 1016.96
1014.04 1013.50 1012.93 1012.32 1011.67 1010.97 1010.20 1009.34 1008.40 1007.37 1006.26 1005.10 1003.91 1002.76 1001.70 1000.76 1000.00 999.44 999.10 998.99 999.08 999.34 999.73 1000.22 1000.77 1001.35 1001.94 1002.54 1003.16 1003.80 1004.48 1005.22 1006.03 1006.93 1007.92 1008.99 1010.12 1011.30 1012.49 1013.66 1014.77 1015.77 1016.62
1013.92 1013.26 1012.56 1011.83 1011.06 1010.25 1009.37 1008.42 1007.39 1006.28 1005.10 1003.89 1002.68 1001.51 1000.44 999.50 998.75 998.20 997.88 997.77 997.87 998.14 998.55 999.06 999.63 1000.24 1000.87 1001.51 1002.17 1002.86 1003.59 1004.39 1005.27 1006.23 1007.29 1008.42 1009.62 1010.85 1012.08 1013.27 1014.38 1015.37 1016.19
1013.57 1012.77 1011.94 1011.09 1010.19 1009.26 1008.27 1007.23 1006.12 1004.96 1003.75 1002.52 1001.31 1000.16 999.11 998.20 997.48 996.96 996.65 996.56 996.68 996.96 997.38 997.90 998.49 999.13 999.80 1000.49 1001.21 1001.96 1002.76 1003.63 1004.58 1005.62 1006.74 1007.93 1009.17 1010.43 1011.67 1012.86 1013.94 1014.88 1015.64
1012.92 1011.99 1011.03 1010.05 1009.04 1008.00 1006.92 1005.80 1004.64 1003.45 1002.23 1001.03 999.85 998.75 997.75 996.90 996.23 995.75 995.48 995.41 995.54 995.83 996.26 996.80 997.41 998.09 998.80 999.55 1000.34 1001.17 1002.06 1003.01 1004.04 1005.14 1006.31 1007.54 1008.80 1010.06 1011.28 1012.43 1013.45 1014.33 1015.02
1011.96 1010.92 1009.86 1008.77 1007.66 1006.53 1005.38 1004.21 1003.02 1001.84 1000.65 999.49 998.39 997.36 996.45 995.68 995.07 994.65 994.42 994.38 994.53 994.83 995.28 995.84 996.48 997.20 997.98 998.80 999.67 1000.59 1001.56 1002.60 1003.69 1004.85 1006.06 1007.30 1008.55 1009.77 1010.94 1012.02 1012.97 1013.76 1014.38
1010.81 1009.69 1008.54 1007.36 1006.18 1004.99 1003.80 1002.61 1001.43 1000.27 999.14 998.06 997.05 996.13 995.32 994.64 994.12 993.76 993.58 993.58 993.75 994.07 994.54 995.13 995.81 996.58 997.43 998.33 999.28 1000.29 1001.34 1002.44 1003.59 1004.78 1006.00 1007.22 1008.43 1009.59 1010.68 1011.66 1012.52 1013.23 1013.77
1009.62 1008.44 1007.24 1006.02 1004.80 1003.58 1002.37 1001.19 1000.04 998.94 997.88 996.90 996.00 995.19 994.49 993.92 993.48 993.20 993.08 993.12 993.32 993.67 994.16 994.78 995.51 996.33 997.24 998.21 999.24 1000.32 1001.43 1002.59 1003.76 1004.95 1006.14 1007.32 1008.45 1009.52 1010.51 1011.39 1012.14 1012.75 1013.22
1008.57 1007.38 1006.17 1004.93 1003.70 1002.47 1001.28 1000.13 999.03 998.00 997.04 996.16 995.38 994.69 994.10 993.63 993.29 993.09 993.02 993.10 993.34 993.71 994.23 994.88 995.64 996.51 997.46 998.49 999.57 1000.69 1001.84 1003.01 1004.17 1005.33 1006.46 1007.55 1008.59 1009.55 1010.42 1011.18 1011.83 1012.35 1012.74
1007.83 1006.66 1005.46 1004.25 1003.03 1001.83 1000.67 999.57 998.54 997.59 996.73 995.96 995.29 994.71 994.24 993.88 993.62 993.49 993.48 993.60 993.86 994.26 994.80 995.46 996.24 997.13 998.10 999.15 1000.24 1001.37 1002.51 1003.64 1004.76 1005.84 1006.88 1007.87 1008.78 1009.61 1010.36 1011.01 1011.55 1011.99 1012.31
1007.50 1006.39 1005.23 1004.06 1002.88 1001.73 1000.63 999.59 998.64 997.78 997.01 996.35 995.79 995.32 994.95 994.68 994.51 994.43 994.47 994.63 994.91 995.32 995.85 996.51 997.28 998.15 999.10 1000.12 1001.18 1002.26 1003.34 1004.39 1005.42 1006.39 1007.31 1008.16 1008.94 1009.65 1010.27 1010.80 1011.25 1011.61 1011.88
1007.60 1006.55 1005.46 1004.35 1003.24 1002.15 1001.12 1000.16 999.29 998.52 997.85 997.29 996.83 996.46 996.18 995.98 995.87 995.85 995.92 996.09 996.38 996.77 997.29 997.91 998.63 999.45 1000.34 1001.28 1002.25 1003.23 1004.20 1005.13 1006.02 1006.86 1007.64 1008.35 1008.99 1009.56 1010.07 1010.50 1010.87 1011.16 1011.38
1008.05 1007.08 1006.07 1005.03 1004.00 1003.00 1002.05 1001.17 1000.39 999.71 999.13 998.66 998.28 997.99 997.78 997.65 997.59 997.60 997.68 997.86 998.12 998.48 998.94 999.50 1000.14 1000.86 1001.65 1002.47 1003.31 1004.14 1004.96 1005.74 1006.47 1007.15 1007.78 1008.34 1008.85 1009.31 1009.71 1010.06 1010.36 1010.59 1010.77
1008.75 1007.86 1006.93 1005.98 1005.04 1004.13 1003.27 1002.49 1001.79 1001.20 1000.70 1000.31 1000.00 999.77 999.61 999.52 999.48 999.50 999.58 999.73 999.96 1000.26 1000.65 1001.11 1001.64 1002.23 1002.87 1003.54 1004.21 1004.88 1005.52 1006.13 1006.69 1007.21 1007.68 1008.10 1008.49 1008.84 1009.16 1009.44 1009.69 1009.88 1010.02
Thickness
5506 5509 5513 5515 5518 5522 5525 5528 5531 5533 5534 5534 5533 5532 5532 5531 5530 5529 5530 5531 5530 5530 5527 5526 5525 5520 5517 5516 5514 5513 5511 5510 5506 5493 5487 5480 5476 5472 5468 5466 5465 5465 5465
5481 5484 5488 5491 5495 5498 5501 5504 5508 5512 5514 5516 5516 5518 5518 5517 5517 5517 5518 5518 5521 5520 5519 5516 5514 5508 5506 5505 5503 5502 5499 5496 5492 5481 5472 5466 5464 5461 5458 5455 5452 5452 5452
5457 5461 5464 5467 5470 5473 5476 5480 5485 5489 5494 5497 5498 5501 5502 5502 5502 5503 5503 5504 5507 5509 5507 5506 5504 5498 5497 5495 5492 5489 5486 5479 5476 5470 5460 5453 5449 5446 5443 5441 5438 5438 5439
5431 5434 5438 5440 5443 5446 5450 5455 5459 5465 5470 5475 5479 5482 5485 5487 5487 5488 5486 5488 5490 5493 5494 5495 5493 5491 5491 5487 5481 5478 5472 5464 5459 5455 5449 5441 5437 5433 5430 5429 5428 5427 5428
5403 5407 5409 5412 5415 5419 5423 5428 5433 5439 5445 5451 5456 5462 5465 5468 5471 5470 5468 5469 5471 5475 5478 5481 5483 5482 5481 5477 5474 5469 5461 5454 5447 5443 5440 5434 5429 5422 5422 5420 5419 5418 5416
5372 5376 5379 5382 5386 5390 5394 5399 5405 5412 5419 5425 5431 5438 5445 5449 5452 5452 5452 5453 5454 5458 5463 5467 5469 5468 5467 5464 5462 5459 5455 5449 5444 5439 5434 5429 5427 5421 5415 5411 5408 5405 5406
5342 5344 5346 5350 5354 5359 5364 5369 5376 5383 5391 5398 5406 5413 5421 5429 5431 5434 5435 5436 5440 5444 5449 5453 5454 5457 5453 5450 5447 5443 5440 5440 5441 5439 5433 5430 5422 5415 5407 5400 5396 5393 5392
5314 5314 5315 5317 5321 5325 5330 5336 5343 5351 5361 5370 5379 5387 5397 5406 5409 5414 5416 5419 5425 5431 5435 5438 5440 5441 5439 5435 5431 5428 5428 5426 5425 5421 5421 5416 5409 5403 5398 5392 5383 5376 5371
5289 5288 5288 5286 5287 5290 5294 5301 5308 5316 5328 5339 5351 5360 5370 5382 5387 5391 5395 5400 5409 5417 5420 5422 5424 5426 5426 5418 5413 5414 5413 5410 5405 5402 5397 5394 5389 5385 5381 5373 5365 5358 5355
5265 5263 5260 5257 5255 5256 5260 5266 5273 5280 5293 5307 5321 5332 5343 5356 5364 5369 5373 5379 5392 5401 5404 5406 5408 5409 5408 5403 5400 5400 5400 5398 5391 5385 5378 5374 5371 5367 5363 5359 5353 5345 5341
5239 5237 5234 5231 5227 5227 5230 5237 5241 5249 5262 5276 5291 5307 5318 5331 5342 5348 5353 5359 5372 5381 5387 5391 5394 5393 5391 5389 5385 5384 5386 5380 5373 5369 5364 5359 5356 5352 5347 5342 5336 5331 5326
5211 5208 5205 5202 5200 5201 5203 5210 5214 5220 5232 5249 5264 5282 5298 5309 5318 5327 5334 5341 5350 5358 5370 5375 5377 5377 5374 5371 5369 5369 5364 5360 5356 5353 5352 5349 5344 5337 5330 5323 5317 5311 5307
5176 5174 5173 5174 5175 5176 5177 5184 5190 5197 5206 5225 5240 5259 5278 5289 5298 5306 5314 5321 5329 5337 5351 5357 5359 5359 5355 5352 5353 5352 5346 5345 5344 5341 5341 5337 5329 5320 5310 5302 5296 5291 5285
5143 5146 5147 5148 5153 5155 5156 5160 5166 5175 5185 5198 5214 5232 5251 5266 5278 5284 5289 5297 5306 5315 5328 5337 5340 5339 5338 5337 5337 5336 5334 5334 5331 5328 5324 5318 5309 5299 5291 5285 5279 5272 5267
5118 5121 5122 5124 5127 5131 5135 5139 5143 5153 5159 5170 5186 5202 5219 5242 5257 5262 5266 5275 5285 5293 5304 5314 5319 5321 5322 5323 5324 5324 5321 5317 5312 5309 5304 5298 5290 5281 5273 5267 5261 5255 5251
5098 5100 5101 5103 5105 5108 5114 5123 5129 5133 5144 5153 5166 5179 5198 5217 5232 5240 5250 5258 5265 5271 5281 5296 5305 5308 5309 5311 5312 5310 5307 5302 5296 5290 5285 5279 5273 5265 5256 5248 5242 5237 5234
5081 5083 5085 5087 5089 5092 5096 5103 5114 5123 5126 5137 5151 5165 5182 5200 5214 5226 5235 5243 5249 5256 5266 5280 5288 5292 5294 5295 5295 5292 5289 5284 5276 5270 5266 5261 5255 5247 5239 5231 5225 5220 5216
5072 5074 5075 5076 5078 5080 5084 5089 5096 5106 5115 5125 5136 5151 5169 5186 5200 5214 5223 5228 5237 5247 5258 5266 5272 5275 5277 5277 5274 5269 5265 5259 5254 5250 5246 5241 5235 5228 5221 5214 5208 5203 5199
5069 5071 5071 5072 5073 5076 5079 5084 5090 5097 5105 5115 5127 5141 5157 5172 5187 5200 5212 5221 5230 5238 5246 5252 5255 5257 5258 5256 5251 5245 5241 5237 5234 5230 5225 5220 5214 5208 5201 5195 5190 5183 5178
5070 5071 5071 5073 5076 5079 5084 5088 5094 5099 5105 5113 5123 5136 5149 5162 5175 5189 5202 5212 5218 5225 5231 5236 5238 5238 5235 5230 5225 5221 5218 5216 5212 5209 5204 5198 5192 5188 5183 5176 5171 5166 5162
5072 5074 5076 5078 5083 5088 5093 5099 5104 5107 5111 5117 5125 5134 5145 5155 5167 5177 5189 5199 5204 5208 5213 5216 5216 5213 5208 5202 5199 5198 5198 5196 5193 5189 5184 5178 5172 5167 5163 5158 5153 5147 5144
5075 5077 5079 5083 5088 5094 5102 5108 5113 5116 5118 5121 5127 5133 5140 5148 5156 5162 5168 5175 5180 5183 5187 5188 5188 5186 5183 5182 5182 5182 5179 5176 5173 5170 5165 5158 5152 5147 5142 5138 5134 5131 5127
5077 5078 5081 5085 5089 5095 5101 5106 5110 5113 5116 5117 5120 5123 5126 5130 5134 5139 5144 5149 5153 5157 5160 5162 5163 5162 5161 5163 5164 5164 5163 5159 5156 5152 5146 5139 5133 5128 5124 5121 5117 5114 5113
5077 5078 5080 5083 5086 5090 5093 5096 5098 5101 5103 5105 5107 5109 5111 5113 5116 5119 5124 5128 5133 5136 5138 5141 5143 5143 5144 5143 5143 5143 5141 5139 5135 5131 5128 5123 5117 5112 5108 5104 5103 5101 5099
5077 5077 5079 5080 5081 5083 5085 5087 5089 5091 5093 5095 5097 5098 5100 5102 5104 5107 5110 5113 5117 5119 5121 5123 5125 5125 5126 5125 5124 5123 5121 5118 5115 5111 5108 5104 5101 5097 5093 5091 5089 5088 5087
5075 5075 5076 5076 5076 5077 5077 5079 5080 5081 5083 5085 5087 5089 5091 5094 5096 5098 5100 5102 5103 5105 5106 5107 5108 5108 5108 5107 5106 5105 5103 5101 5097 5095 5092 5089 5086 5083 5080 5079 5078 5077 5077